Weather History for Morganton, NC

Change the Weather History Date:

Saturday, February 23, 2013

  Actual Average (KHKY) Record (KHKY)
Temperature  
Mean Temperature 42 °F -  
Max Temperature 48 °F 54 °F 74 °F (1980)
Min Temperature 35 °F 35 °F 13 °F (1963)
Degree Days  
Heating Degree Days 24    
Moisture  
Dew Point 39 °F    
Average Humidity 94    
Maximum Humidity 100    
Minimum Humidity 77    
Precipitation  
Precipitation 0.18 in - - ()
Sea Level Pressure  
Sea Level Pressure 29.98 in    
Wind  
Wind Speed 1 mph (North)    
Max Wind Speed 6 mph    
Max Gust Speed -    
Visibility 7 miles    
Events Rain , Snow    
Averages and records for this station are not official NWS values.
T = Trace of Precipitation, MM = Missing Value Source: NWS Daily Summary

Daily Weather History Graph

Daily Weather History Graph

Search for Another Location

Airport:

Trip Planner

Search our weather history database for the weather conditions in past years. The results will help you decide how hot, cold, wet, or windy it might be!

Date:

Astronomy

Feb. 23, 2013 Rise Set
Actual Time 7:03 AM EST 6:16 PM EST
Civil Twilight 6:37 AM EST 6:42 PM EST
Nautical Twilight 6:08 AM EST 7:11 PM EST
Astronomical Twilight 5:38 AM EST 7:41 PM EST
Moon 4:27 PM EST (2/23) 5:22 AM EST (2/23)
Length of Visible Light 12h 04m
Length of Day
11h 12m
Waxing Gibbous, 95% of the Moon is Illuminated
Feb 23
Waxing Gibbous
Feb 25
Full
Mar 4
Last Quarter
Mar 11
New
Mar 19
First Quarter

Hourly Weather History & Observations

Time (EST) Temp. Windchill Dew Point Humidity Pressure Visibility Wind Dir Wind Speed Gust Speed Precip Events Conditions
12:15 AM 35.8 °F - 35.8 °F 100% 30.16 in 1.8 mi Calm Calm - N/A   Overcast
12:35 AM 35.8 °F - 35.8 °F 100% 30.16 in 3.0 mi Calm Calm - N/A   Overcast
12:55 AM 36.0 °F - 36.0 °F 100% 30.15 in 2.5 mi Calm Calm - N/A   Overcast
1:15 AM 35.8 °F - 35.8 °F 100% 30.14 in 3.0 mi Calm Calm - N/A   Overcast
1:35 AM 35.8 °F - 35.8 °F 100% 30.14 in 3.0 mi Calm Calm - N/A   Overcast
1:55 AM 35.6 °F - 35.6 °F 100% 30.12 in 2.5 mi Calm Calm - N/A   Drizzle
2:15 AM 35.6 °F 30.7 °F 35.6 °F 100% 30.07 in 1.8 mi North 5.8 mph - 0.01 in Rain Rain
2:35 AM 35.6 °F 30.7 °F 35.6 °F 100% 30.08 in 2.5 mi NW 5.8 mph - 0.01 in Rain Light Rain
2:55 AM 35.4 °F - 35.4 °F 100% 30.06 in 2.5 mi Calm Calm - 0.03 in Rain Rain
3:15 AM 35.6 °F - 35.6 °F 100% 30.07 in 2.5 mi Calm Calm - 0.02 in Rain Rain
3:35 AM 35.6 °F - 35.6 °F 100% 30.07 in 2.0 mi Calm Calm - 0.05 in Rain Rain
3:55 AM 35.6 °F 32.8 °F 35.6 °F 100% 30.06 in 1.8 mi ESE 3.5 mph - 0.08 in Rain Rain
4:15 AM 35.6 °F - 35.6 °F 100% 30.05 in 2.5 mi Calm Calm - 0.01 in Rain Light Rain
4:35 AM 35.6 °F - 35.6 °F 100% 30.05 in 3.0 mi Calm Calm - 0.01 in Rain Light Rain
4:55 AM 35.6 °F - 35.6 °F 100% 30.05 in 2.0 mi Calm Calm - 0.02 in Snow Light Snow
5:15 AM 35.6 °F - 35.6 °F 100% 30.04 in 2.5 mi Calm Calm - 0.01 in Snow Light Snow
5:35 AM 35.6 °F - 35.6 °F 100% 30.02 in 3.0 mi Calm Calm - 0.01 in   Overcast
5:55 AM 35.6 °F - 35.6 °F 100% 30.01 in 4.0 mi Calm Calm - 0.01 in   Overcast
6:15 AM 35.6 °F - 35.6 °F 100% 30.02 in 5.0 mi Calm Calm - N/A Rain Light Rain
6:35 AM 35.6 °F - 35.6 °F 100% 30.02 in 2.5 mi Calm Calm - 0.01 in Rain Light Rain
6:55 AM 35.2 °F 32.4 °F 35.2 °F 100% 30.02 in 3.0 mi North 3.5 mph - 0.02 in Snow Light Snow
7:15 AM 35.2 °F - 35.2 °F 100% 30.01 in 3.0 mi Calm Calm - 0.01 in Snow Light Snow
7:35 AM 35.6 °F - 35.6 °F 100% 30.01 in 4.0 mi Calm Calm - 0.01 in   Overcast
7:55 AM 35.6 °F 31.7 °F 35.6 °F 100% 30.03 in 4.0 mi NNW 4.6 mph - 0.01 in   Light Drizzle
8:15 AM 35.8 °F 31.9 °F 35.8 °F 100% 30.03 in 4.0 mi NNW 4.6 mph - N/A Snow Light Snow
8:35 AM 35.8 °F 31.9 °F 35.8 °F 100% 29.99 in 4.0 mi ENE 4.6 mph - 0.01 in   Overcast
8:55 AM 36.0 °F 33.3 °F 36.0 °F 100% 30.02 in 5.0 mi North 3.5 mph - 0.01 in   Overcast
9:15 AM 36.7 °F 34.1 °F 36.5 °F 99% 30.01 in 7.0 mi North 3.5 mph - N/A   Light Drizzle
9:35 AM 37.0 °F 34.5 °F 36.5 °F 98% 30.03 in 10.0 mi NNW 3.5 mph - N/A   Overcast
9:55 AM 37.8 °F - 36.9 °F 97% 30.02 in 7.0 mi Calm Calm - N/A Rain Light Rain
10:15 AM 38.3 °F - 36.9 °F 95% 30.01 in 10.0 mi Calm Calm - N/A Rain Light Rain
10:35 AM 39.4 °F 36.1 °F 38.1 °F 95% 30.01 in 10.0 mi North 4.6 mph - N/A Rain Light Rain
10:55 AM 39.9 °F - 38.3 °F 94% 30.01 in 10.0 mi Calm Calm - N/A Rain Light Rain
11:15 AM 40.1 °F 38.0 °F 37.8 °F 91% 30.01 in 10.0 mi North 3.5 mph - N/A   Overcast
11:35 AM 40.5 °F - 38.3 °F 92% 30.01 in 10.0 mi Calm Calm - N/A   Overcast
11:55 AM 40.5 °F - 37.6 °F 89% 30.00 in 10.0 mi Calm Calm - N/A   Overcast
12:15 PM 41.0 °F - 37.9 °F 89% 30.00 in 10.0 mi Calm Calm - N/A   Overcast
12:35 PM 41.9 °F - 38.7 °F 88% 30.00 in 10.0 mi Calm Calm - N/A   Overcast
1:15 PM 44.2 °F - 39.7 °F 84% 29.95 in 10.0 mi Calm Calm - N/A   Overcast
1:35 PM 44.6 °F - 39.9 °F 84% 29.95 in 10.0 mi Calm Calm - N/A   Overcast
1:55 PM 45.1 °F - 40.1 °F 82% 29.95 in 10.0 mi Calm Calm - N/A   Overcast
2:15 PM 46.0 °F - 40.1 °F 80% 29.94 in 10.0 mi Calm Calm - N/A   Overcast
2:35 PM 46.6 °F - 40.1 °F 78% 29.94 in 10.0 mi Calm Calm - N/A   Overcast
2:55 PM 47.3 °F - 40.8 °F 78% 29.93 in 10.0 mi North 3.5 mph - N/A   Mostly Cloudy
3:15 PM 47.3 °F - 40.6 °F 78% 29.93 in 10.0 mi Calm Calm - N/A   Scattered Clouds
3:35 PM 48.2 °F - 41.4 °F 77% 29.93 in 10.0 mi Calm Calm - N/A   Scattered Clouds
3:55 PM 48.6 °F - 41.5 °F 77% 29.92 in 10.0 mi Calm Calm - N/A   Mostly Cloudy
4:15 PM 48.7 °F - 42.1 °F 78% 29.92 in 10.0 mi Calm Calm - N/A   Overcast
4:35 PM 48.2 °F - 42.4 °F 80% 29.92 in 10.0 mi Calm Calm - N/A   Overcast
4:55 PM 48.2 °F - 42.8 °F 82% 29.91 in 10.0 mi Calm Calm - N/A   Overcast
5:15 PM 48.2 °F - 42.3 °F 80% 29.90 in 10.0 mi Calm Calm - N/A   Overcast
5:35 PM 47.8 °F - 42.6 °F 82% 29.90 in 10.0 mi Calm Calm - N/A   Overcast
5:55 PM 47.8 °F - 42.8 °F 83% 29.89 in 10.0 mi Calm Calm - N/A   Overcast
6:15 PM 47.1 °F - 44.2 °F 90% 29.89 in 10.0 mi Calm Calm - N/A   Overcast
6:35 PM 46.6 °F - 43.7 °F 90% 29.89 in 10.0 mi Calm Calm - N/A   Overcast
6:55 PM 45.9 °F - 44.4 °F 95% 29.87 in 10.0 mi Calm Calm - N/A   Overcast
7:15 PM 45.5 °F - 44.1 °F 95% 29.89 in 10.0 mi Calm Calm - N/A   Mostly Cloudy
7:35 PM 44.8 °F - 43.9 °F 97% 29.89 in 10.0 mi Calm Calm - N/A   Mostly Cloudy
7:55 PM 44.1 °F - 43.3 °F 97% 29.88 in 10.0 mi Calm Calm - N/A   Scattered Clouds
8:15 PM 43.9 °F - 43.2 °F 97% 29.88 in 10.0 mi Calm Calm - N/A   Scattered Clouds
8:35 PM 42.8 °F - 42.4 °F 99% 29.87 in 10.0 mi Calm Calm - N/A   Clear
8:55 PM 43.0 °F - 43.0 °F 100% 29.88 in 10.0 mi Calm Calm - N/A   Clear
9:15 PM 42.3 °F - 42.1 °F 99% 29.89 in 10.0 mi Calm Calm - N/A   Scattered Clouds
9:35 PM 42.1 °F - 42.1 °F 100% 29.90 in 10.0 mi Calm Calm - N/A   Overcast
9:55 PM 42.8 °F - 42.8 °F 100% 29.90 in 10.0 mi Calm Calm - N/A   Overcast
10:15 PM 42.8 °F - 42.8 °F 100% 29.89 in 10.0 mi Calm Calm - N/A   Overcast
10:35 PM 43.3 °F - 43.3 °F 100% 29.88 in 10.0 mi Calm Calm - N/A   Overcast
11:15 PM 42.3 °F - 42.1 °F 99% 29.87 in 10.0 mi Calm Calm - N/A   Mostly Cloudy
11:35 PM 40.5 °F - 40.5 °F 100% 29.88 in 4.0 mi Calm Calm - N/A   Scattered Clouds
11:55 PM 42.4 °F - 42.4 °F 100% 29.88 in 5.0 mi Calm Calm - N/A   Clear